BODO_VI_(CIV/MIL) current weather conditions

sailwx.info

Wind from 290 at 9 knots

Air temperature 1.0° C
Visibility: greater than 5.4 NM
Dewpoint -4.0° C

Last reported at 2020-Jan-22 12:50 UTC.
Time now 2020-Jan-22 14:23 UTC

Location: N 67°16' E 014°22'.
View on Google Maps.

See reports from other nearby stations

  
Tides and Currents Weather Stations Pressure Air Temp Water Temp Dewpoint Dewpoint Depression Visibility Wind Speed Wind Dir Waves Ship Positions
date/time (UTC)wind fromknots sea level pressurealtimeterstation pressurevisibilityair tempwater tempwave heightnotes
2020-Jan-22 13:50 270 11 5.4 2.0
2020-Jan-22 13:20 280 8 5.4 2.0
2020-Jan-22 12:50 290 9 5.4 1.0
2020-Jan-22 12:20 310 9 5.4 2.0
2020-Jan-22 11:50 330 6 5.4 2.0
2020-Jan-22 11:20 320 6 5.4 2.0
2020-Jan-22 10:50 340 7 5.4 2.0 Showers in the vicinity.
2020-Jan-22 10:20 310 13 5.4 2.0
2020-Jan-22 09:50 320 9 5.4 2.0
2020-Jan-22 09:20 340 13 5.4 2.0
2020-Jan-22 08:50 340 14 5.4 3.0
2020-Jan-22 08:20 340 13 5.4 3.0
2020-Jan-22 07:50 330 15 5.4 3.0
2020-Jan-22 07:20 330 13 5.4 4.0
2020-Jan-22 06:50 330 13 5.4 4.0
2020-Jan-22 06:20 300 14 5.4 3.0
2020-Jan-22 05:50 320 11 5.4 3.0
2020-Jan-22 05:20 330 13 5.4 3.0
2020-Jan-22 04:50 330 13 5.4 3.0 Light rain showers.
2020-Jan-22 04:20 320 13 5.4 3.0 Light rain showers.
2020-Jan-22 03:50 290 15 5.4 4.0 Showers in the vicinity.
2020-Jan-22 02:50 320 11 5.4 3.0
2020-Jan-22 01:50 340 9 5.4 2.0
2020-Jan-22 00:50 340 9 5.4 2.0 Showers in the vicinity.
2020-Jan-21 23:50 360 9 5.4 2.0 Showers in the vicinity.
2020-Jan-21 22:50 310 7 5.4 1.0
2020-Jan-21 22:20 340 5 1.6 1.0 Light snow showers.
2020-Jan-21 21:50 290 7 2.7 1.0 Light snow showers.
2020-Jan-21 21:20 260 18 5.4 2.0 Light snow showers.
2020-Jan-21 20:50 270 20 5.4 2.0 Light rain showers.
2020-Jan-21 20:20 270 26 gusting 35 5.4 1.0 Light snow showers.
2020-Jan-21 19:50 280 20 5.4 1.0 Light snow showers.
2020-Jan-21 19:20 260 26 4.9 1.0 Light snow showers.
2020-Jan-21 18:50 270 27 5.4 1.0 Showers in the vicinity.
2020-Jan-21 18:20 290 29 gusting 44 2.2 1.0 Light snow showers. Small hail/snow pellets.
2020-Jan-21 17:50 280 28 5.4 1.0 Light snow showers.
2020-Jan-21 17:20 290 22 gusting 34 5.4 1.0 Light snow showers.
2020-Jan-21 16:50 270 26 5.4 1.0 Light snow showers.
2020-Jan-21 16:20 280 32 gusting 41 0.3-0.0 Snow showers.
2020-Jan-21 15:50 270 29 5.4 2.0 Showers in the vicinity.
2020-Jan-21 15:20 280 24 5.4 2.0 Showers in the vicinity.
2020-Jan-21 14:50 290 27 5.4 1.0 Light rain showers.
2020-Jan-21 14:20 290 32 5.4 1.0 Showers in the vicinity.
2020-Jan-21 13:50 280 33 gusting 42 5.4 2.0 Showers in the vicinity.
2020-Jan-21 13:20 270 35 5.4 2.0 Showers in the vicinity.
2020-Jan-21 12:50 270 32 5.4 2.0 Showers in the vicinity.
2020-Jan-21 12:20 270 41 gusting 53 5.4 1.0 Showers in the vicinity.
2020-Jan-21 11:50 270 38 gusting 48 2.2-0.0 Light snow showers. Small hail/snow pellets.
2020-Jan-21 11:20 270 35 5.4 3.0 Showers in the vicinity.
2020-Jan-21 10:50 270 34 gusting 60 3.2 3.0 Showers in the vicinity.
2020-Jan-21 10:20 260 42 gusting 54 5.4 2.0 Showers in the vicinity.
2020-Jan-21 09:50 260 29 gusting 40 5.4 2.0 Showers in the vicinity.
2020-Jan-21 09:20 280 41 gusting 56 3.8 1.0 Light snow showers.
2020-Jan-21 08:50 270 33 gusting 42 5.4 3.0 Showers in the vicinity.
2020-Jan-21 08:20 260 29 5.4 3.0
2020-Jan-21 07:50 270 29 5.4 3.0 Showers in the vicinity.
2020-Jan-21 07:20 270 34 5.4 3.0
2020-Jan-21 06:50 270 33 gusting 48 4.3 3.0 Light rain showers.
2020-Jan-21 06:20 270 28 5.4 3.0
2020-Jan-21 05:50 270 25 5.4 1.0 Showers in the vicinity.
2020-Jan-21 05:20 270 28 5.4 2.0 Light snow showers. Small hail/snow pellets.
2020-Jan-21 04:50 260 29 5.4 3.0
2020-Jan-21 04:20 260 31 5.4 4.0
2020-Jan-21 03:50 260 27 gusting 38 5.4 4.0
2020-Jan-21 03:20 270 32 gusting 42 5.4 4.0 Light rain showers.
2020-Jan-21 02:50 270 34 gusting 44 5.4 4.0
2020-Jan-21 02:20 280 34 gusting 45 5.4 4.0
2020-Jan-21 01:50 280 35 gusting 48 5.4 4.0
2020-Jan-21 01:20 290 29 gusting 42 5.4 3.0 Showers in the vicinity.
2020-Jan-21 00:50 270 29 gusting 54 5.4 4.0 Light rain showers.
2020-Jan-21 00:20 270 33 gusting 42 5.4 5.0
2020-Jan-20 23:50 250 29 5.4 4.0 Showers in the vicinity.
2020-Jan-20 23:20 260 31 2.2 3.0 Rain showers.
2020-Jan-20 22:50 5.4 1.0 Rain showers.
2020-Jan-20 22:20 5.4 2.0
2020-Jan-20 21:50 210 14 2.2 2.0 Rain showers.
2020-Jan-20 21:20 220 13 5.4 4.0 Light rain showers.
2020-Jan-20 20:50 280 5 5.4 3.0 Light rain showers.
2020-Jan-20 20:20 310 18 5.4 4.0 Light rain showers.
2020-Jan-20 19:50 300 17 5.4 4.0 Light rain showers.
2020-Jan-20 19:20 280 22 3.2 5.0 Rain showers.
2020-Jan-20 18:50 260 22 gusting 33 2.7 5.0 Rain showers.
2020-Jan-20 18:20 260 20 5.4 5.0 Light rain.
2020-Jan-20 17:50 270 20 5.4 5.0 Light rain drizzle.
2020-Jan-20 17:20 270 18 5.4 5.0 Light rain.
2020-Jan-20 16:50 290 13 2.2 5.0 Drizzle rain.
2020-Jan-20 16:20 320 4 2.7 4.0 Rain.
2020-Jan-20 15:50 110 4 3.2 4.0 Rain.
2020-Jan-20 15:20 160 8 2.2 4.0 Rain.
2020-Jan-20 14:50 200 11 3.2 5.0 Rain.
2020-Jan-20 14:20 240 11 2.7 5.0 Rain.